period_start,C,m1,H,J0,J1,J2,J3,J4,J5,JA,JB,JC,JD,JJ,JK,JN,#
2016-05-02 00:04:41,0.05,0.58,0.00,24.47,28.38,31.38,14.21,49.21,1002.48,2032.04,3265.44,2978.72,3366.81,599.80,584.64,9.63,0000 0000 0000 0000 000000
2016-05-02 00:09:43,0.05,0.58,0.00,24.50,28.40,31.37,14.16,49.37,1002.49,2032.05,3264.03,2977.95,3365.75,599.62,584.49,9.68,0000 0000 0000 0000 000000
2016-05-02 00:14:44,0.06,0.59,0.00,24.54,28.40,31.37,14.32,49.48,1002.47,2032.00,3262.75,2977.07,3364.64,600.01,584.66,9.73,0000 0000 0000 0000 000000
2016-05-02 00:19:45,0.06,0.59,0.00,24.56,28.40,31.37,14.27,49.34,1002.49,2032.00,3261.49,2976.27,3363.62,600.15,584.70,9.78,0000 0000 0000 0000 000000
2016-05-02 00:24:47,0.04,0.59,0.00,24.57,28.41,31.38,14.36,49.52,1002.50,2032.00,3260.35,2975.83,3362.74,600.30,584.95,9.83,0000 0000 0000 0000 000000
2016-05-02 00:29:48,0.04,0.60,0.00,24.59,28.42,31.38,14.26,49.48,1002.59,2032.00,3259.29,2975.07,3361.89,600.15,584.83,9.88,0000 0000 0000 0000 000000
2016-05-02 00:34:49,0.04,0.60,0.00,24.60,28.42,31.37,14.14,49.38,1002.56,2032.00,3258.25,2974.57,3361.06,599.77,584.32,9.93,0000 0000 0000 0000 000000
2016-05-02 00:39:51,0.04,0.60,0.00,24.62,28.42,31.38,14.28,49.49,1002.76,2032.00,3257.31,2974.00,3360.27,599.95,584.71,9.98,0000 0000 0000 0000 000000
2016-05-02 00:44:52,0.05,0.60,0.00,24.65,28.42,31.37,14.36,49.36,1002.53,2032.00,3256.35,2973.37,3359.60,600.20,584.65,10.03,0000 0000 0000 0000 000000
2016-05-02 00:49:53,0.02,0.60,0.00,24.69,28.42,31.37,14.27,49.37,1002.47,2032.00,3255.56,2973.00,3358.92,600.21,584.60,10.08,0000 0000 0000 0000 000000
2016-05-02 00:54:54,0.05,0.61,0.00,24.70,28.42,31.35,14.19,49.28,1002.47,2031.99,3254.56,2972.31,3358.09,599.68,584.06,10.13,0000 0000 0000 0000 000000
2016-05-02 00:59:56,0.02,0.61,0.00,24.69,28.42,31.35,14.30,49.48,1002.47,2031.99,3253.91,2972.00,3357.43,600.36,584.82,10.18,0000 0000 0000 0000 000000
2016-05-02 01:04:57,0.02,0.61,0.00,24.71,28.42,31.34,14.27,49.42,1002.52,2031.99,3253.10,2971.72,3356.93,600.25,584.65,10.23,0000 0000 0000 0000 000000
2016-05-02 01:09:58,0.04,0.61,0.00,24.71,28.42,31.36,14.28,49.39,1002.62,2031.98,3252.31,2971.05,3356.13,600.20,584.59,10.28,0000 0000 0000 0000 000000
2016-05-02 01:15:00,0.01,0.61,0.00,24.75,28.42,31.34,14.22,49.38,1002.70,2031.99,3251.72,2970.98,3355.82,599.98,584.10,10.33,0000 0000 0000 0000 000000
2016-05-02 01:20:01,0.04,0.61,0.00,24.78,28.42,31.33,14.21,49.34,1002.92,2031.99,3251.01,2970.29,3355.05,600.09,584.60,10.38,0000 0000 0000 0000 000000
2016-05-02 01:25:03,0.03,0.62,0.00,24.81,28.42,31.33,14.21,49.29,1002.94,2031.99,3250.21,2970.00,3354.57,599.92,584.39,10.43,0000 0000 0000 0000 000000
2016-05-02 01:30:04,0.03,0.62,0.00,24.80,28.42,31.33,14.28,49.33,1002.94,2031.98,3249.54,2969.66,3353.96,599.92,584.58,10.48,0000 0000 0000 0000 000000
2016-05-02 01:35:05,0.03,0.62,0.00,24.83,28.42,31.33,14.20,49.32,1002.94,2031.99,3248.85,2969.04,3353.17,599.65,584.04,10.53,0000 0000 0000 0000 000000
2016-05-02 01:40:07,0.01,0.62,0.00,24.83,28.42,31.32,14.27,49.41,1002.94,2031.99,3248.07,2968.96,3352.80,600.40,584.75,10.58,0000 0000 0000 0000 000000
2016-05-02 01:45:08,0.04,0.62,0.00,24.85,28.42,31.30,14.33,49.42,1002.94,2031.99,3247.29,2968.23,3352.04,600.19,584.51,10.63,0000 0000 0000 0000 000000
2016-05-02 01:50:10,0.02,0.62,0.00,24.85,28.42,31.31,14.20,49.44,1002.95,2031.99,3246.69,2968.00,3351.54,600.31,584.73,10.68,0000 0000 0000 0000 000000
2016-05-02 01:55:11,0.02,0.63,0.00,24.87,28.42,31.31,14.24,49.33,1002.96,2031.99,3245.86,2967.76,3350.97,599.83,584.04,10.73,0000 0000 0000 0000 000000
2016-05-02 02:00:12,0.04,0.63,0.00,24.90,28.42,31.31,14.19,49.13,1002.97,2031.98,3245.03,2967.05,3350.19,600.10,584.39,10.78,0000 0000 0000 0000 000000
2016-05-02 02:05:13,0.01,0.63,0.00,24.92,28.42,31.31,14.27,49.25,1002.96,2031.99,3244.34,2966.99,3349.91,599.95,584.10,10.83,0000 0000 0000 0000 000000
2016-05-02 02:10:15,0.04,0.63,0.00,24.95,28.42,31.31,14.15,49.21,1003.05,2031.99,3243.68,2966.41,3349.15,599.87,584.14,10.88,0000 0000 0000 0000 000000
2016-05-02 02:15:16,0.02,0.63,0.00,24.96,28.42,31.32,14.22,49.36,1003.33,2031.99,3242.86,2966.01,3348.74,599.49,583.85,10.93,0000 0000 0000 0000 000000
2016-05-02 02:20:17,0.02,0.63,0.00,24.99,28.42,31.34,14.29,49.23,1003.43,2031.98,3242.05,2965.81,3348.02,600.47,584.87,10.98,0000 0000 0000 0000 000000
2016-05-02 02:25:18,0.05,0.64,0.00,25.01,28.42,31.32,14.17,49.28,1003.43,2031.96,3241.26,2965.07,3347.27,599.66,584.06,11.03,0000 0000 0000 0000 000000
2016-05-02 02:30:19,0.01,0.64,0.00,25.04,28.42,31.32,14.16,49.33,1003.43,2031.98,3240.77,2964.96,3346.85,599.80,583.90,11.08,0000 0000 0000 0000 000000
2016-05-02 02:35:20,0.04,0.64,0.00,25.06,28.42,31.34,14.11,49.34,1003.46,2031.98,3239.91,2964.35,3346.08,599.39,583.84,11.13,0000 0000 0000 0000 000000
2016-05-02 02:40:21,0.02,0.64,0.00,25.08,28.43,31.33,14.25,49.33,1003.49,2031.94,3238.98,2963.99,3345.43,600.09,584.32,11.18,0000 0000 0000 0000 000000
2016-05-02 02:45:23,0.04,0.64,0.00,25.08,28.44,31.34,14.20,49.48,1003.90,2031.93,3238.18,2963.55,3344.89,600.38,584.84,11.23,0000 0000 0000 0000 000000
2016-05-02 02:50:24,0.03,0.64,0.00,25.05,28.45,31.36,14.27,49.42,1003.92,2031.91,3237.68,2963.03,3344.09,600.27,584.80,11.28,0000 0000 0000 0000 000000
2016-05-02 02:55:25,0.01,0.64,0.00,25.05,28.45,31.35,14.13,49.18,1003.93,2031.79,3236.91,2962.82,3343.45,599.60,584.12,11.33,0000 0000 0000 0000 000000
2016-05-02 03:00:27,0.02,0.65,0.00,25.05,28.45,31.37,14.25,49.43,1003.92,2031.57,3236.01,2962.09,3342.89,599.67,584.23,11.38,0000 0000 0000 0000 000000
2016-05-02 03:05:28,0.04,0.65,0.00,25.03,28.45,31.36,14.25,49.35,1003.92,2031.55,3235.15,2961.97,3342.07,600.09,584.62,11.43,0000 0000 0000 0000 000000
2016-05-02 03:10:29,0.01,0.65,0.00,25.02,28.45,31.37,14.25,49.39,1003.94,2031.22,3234.38,2961.25,3341.43,600.25,584.72,11.48,0000 0000 0000 0000 000000
2016-05-02 03:15:30,0.02,0.65,0.00,25.03,28.45,31.37,14.23,49.21,1004.21,2031.24,3233.78,2961.01,3341.00,600.15,584.98,11.53,0000 0000 0000 0000 000000
2016-05-02 03:20:31,0.03,0.65,0.00,25.05,28.45,31.38,14.34,49.18,1004.40,2031.15,3232.90,2960.76,3340.28,600.31,585.15,11.58,0000 0000 0000 0000 000000
2016-05-02 03:25:33,0.03,0.65,0.00,25.07,28.45,31.40,14.27,49.23,1004.41,2031.14,3232.06,2960.06,3339.91,600.00,584.78,11.64,0000 0000 0000 0000 000000
2016-05-02 03:30:34,0.04,0.65,0.00,25.10,28.45,31.40,14.28,49.33,1004.41,2031.22,3231.30,2959.97,3339.12,599.99,584.78,11.69,0000 0000 0000 0000 000000
2016-05-02 03:35:36,0.03,0.66,0.00,25.12,28.45,31.38,14.23,49.25,1004.53,2031.16,3230.48,2959.37,3338.57,599.78,584.64,11.74,0000 0000 0000 0000 000000
2016-05-02 03:40:37,0.01,0.66,0.00,25.11,28.45,31.40,14.23,49.43,1004.61,2031.12,3229.81,2959.02,3338.00,599.58,584.52,11.79,0000 0000 0000 0000 000000
2016-05-02 03:45:39,0.05,0.66,0.00,25.08,28.45,31.39,14.26,49.38,1004.57,2031.16,3229.02,2958.81,3337.25,599.97,584.95,11.84,0000 0000 0000 0000 000000
2016-05-02 03:50:40,0.02,0.66,0.00,25.09,28.45,31.39,14.32,49.30,1004.80,2031.12,3228.17,2958.08,3336.93,600.28,585.14,11.89,0000 0000 0000 0000 000000
2016-05-02 03:55:41,0.03,0.66,0.00,25.10,28.45,31.40,14.22,49.40,1004.88,2031.11,3227.46,2957.97,3336.10,599.88,584.88,11.94,0000 0000 0000 0000 000000
2016-05-02 04:00:43,0.03,0.66,0.00,25.11,28.45,31.42,14.18,49.33,1004.86,2031.08,3226.85,2957.38,3335.63,599.80,584.75,11.99,0000 0000 0000 0000 000000
2016-05-02 04:05:44,0.02,0.67,0.00,25.15,28.45,31.40,14.22,49.31,1004.89,2031.05,3226.03,2957.01,3335.01,599.61,584.53,12.04,0000 0000 0000 0000 000000
2016-05-02 04:10:46,0.04,0.67,0.00,25.15,28.45,31.39,14.14,49.27,1004.90,2031.07,3225.18,2956.71,3334.38,599.80,584.74,12.09,0000 0000 0000 0000 000000
2016-05-02 04:15:47,0.02,0.67,0.00,25.12,28.46,31.39,14.26,49.24,1004.90,2031.02,3224.32,2956.03,3333.82,600.28,585.30,12.14,0000 0000 0000 0000 000000
2016-05-02 04:20:48,0.01,0.67,0.00,25.13,28.47,31.44,14.17,49.26,1004.90,2031.02,3223.85,2955.97,3333.05,599.96,584.99,12.19,0000 0000 0000 0000 000000
2016-05-02 04:25:49,0.04,0.67,0.00,25.16,28.47,31.42,14.18,49.33,1004.92,2031.04,3223.02,2955.28,3332.65,599.98,584.75,12.24,0000 0000 0000 0000 000000
2016-05-02 04:30:51,0.02,0.67,0.00,25.20,28.47,31.42,14.21,49.28,1005.01,2031.02,3222.18,2954.97,3331.99,600.27,585.15,12.29,0000 0000 0000 0000 000000
2016-05-02 04:35:53,0.05,0.68,0.00,25.20,28.47,31.43,14.25,49.42,1004.99,2031.01,3221.37,2954.40,3331.20,599.76,584.64,12.34,0000 0000 0000 0000 000000
2016-05-02 04:40:54,0.02,0.68,0.00,25.17,28.47,31.40,14.20,49.03,1004.95,2031.01,3220.64,2954.00,3330.81,599.91,584.76,12.39,0000 0000 0000 0000 000000
2016-05-02 04:45:55,0.02,0.68,0.00,25.12,28.48,31.42,14.22,49.22,1005.27,2031.00,3219.92,2953.73,3330.06,599.75,584.90,12.44,0000 0000 0000 0000 000000
2016-05-02 04:50:56,0.04,0.68,0.00,25.12,28.50,31.42,14.29,49.25,1005.38,2031.01,3219.07,2953.07,3329.59,599.92,585.07,12.49,0000 0000 0000 0000 000000
2016-05-02 04:55:57,0.02,0.68,0.00,25.12,28.50,31.43,14.25,49.32,1005.39,2031.00,3218.25,2952.93,3328.99,599.77,584.96,12.54,0000 0000 0000 0000 000000
2016-05-02 05:00:58,0.05,0.68,0.00,25.12,28.50,31.44,14.18,49.16,1005.40,2031.00,3217.51,2952.19,3328.22,599.97,585.19,12.59,0000 0000 0000 0000 000000
2016-05-02 05:06:00,0.01,0.69,0.00,25.13,28.51,31.43,14.17,49.33,1005.40,2031.00,3216.87,2952.00,3327.81,599.92,585.16,12.64,0000 0000 0000 0000 000000
2016-05-02 05:11:01,0.05,0.69,0.00,25.11,28.52,31.44,14.26,49.38,1005.40,2031.00,3216.03,2951.41,3327.04,600.20,585.38,12.69,0000 0000 0000 0000 000000
2016-05-02 05:16:02,0.02,0.69,0.00,25.10,28.52,31.45,14.26,49.23,1005.40,2031.00,3215.18,2951.00,3326.61,600.34,585.64,12.74,0000 0000 0000 0000 000000
2016-05-02 05:21:04,0.04,0.69,0.00,25.13,28.52,31.48,14.22,49.42,1005.40,2031.00,3214.38,2950.53,3325.98,599.64,584.93,12.79,0000 0000 0000 0000 000000
2016-05-02 05:26:05,0.03,0.69,0.00,25.12,28.54,31.47,14.23,49.35,1005.39,2031.00,3213.68,2950.01,3325.24,600.12,585.40,12.84,0000 0000 0000 0000 000000
2016-05-02 05:31:06,0.03,0.69,0.00,25.12,28.55,31.45,14.24,49.40,1005.42,2031.00,3212.83,2949.67,3324.73,599.81,585.09,12.89,0000 0000 0000 0000 000000
2016-05-02 05:36:07,0.02,0.70,0.00,25.12,28.55,31.45,14.26,49.32,1005.46,2031.00,3212.01,2949.04,3324.02,599.99,585.29,12.94,0000 0000 0000 0000 000000
2016-05-02 05:41:09,0.03,0.70,0.00,25.11,28.56,31.45,14.34,49.27,1005.60,2031.00,3211.13,2948.81,3323.36,600.30,585.64,12.99,0000 0000 0000 0000 000000
2016-05-02 05:46:10,0.03,0.70,0.00,25.12,28.57,31.47,14.34,49.39,1005.83,2031.00,3210.46,2948.09,3322.87,600.32,585.70,13.04,0000 0000 0000 0000 000000
2016-05-02 05:51:11,0.03,0.70,0.00,25.10,28.57,31.47,14.24,49.39,1005.88,2031.00,3209.64,2947.84,3322.10,599.86,585.45,13.09,0000 0000 0000 0000 000000
2016-05-02 05:56:13,0.04,0.70,0.00,25.08,28.58,31.49,14.23,49.45,1005.90,2031.00,3208.82,2947.06,3321.29,599.91,585.67,13.14,0000 0000 0000 0000 000000
2016-05-02 06:01:14,0.02,0.71,0.00,25.10,28.60,31.50,14.29,49.57,1005.90,2030.99,3208.02,2946.82,3320.88,600.10,585.71,13.19,0000 0000 0000 0000 000000
2016-05-02 06:06:16,0.04,0.71,0.00,25.09,28.60,31.45,14.25,49.27,1005.89,2030.99,3207.17,2946.05,3320.08,599.75,585.16,13.24,0000 0000 0000 0000 000000
2016-05-02 06:11:17,0.03,0.71,0.00,25.09,28.61,31.49,14.34,49.32,1005.89,2030.99,3206.51,2945.84,3319.55,600.37,585.97,13.29,0000 0000 0000 0000 000000
2016-05-02 06:16:19,0.04,0.71,0.00,25.07,28.62,31.48,14.29,49.50,1005.88,2030.98,3205.63,2945.07,3318.94,600.45,586.07,13.34,0000 0000 0000 0000 000000
2016-05-02 06:21:20,0.03,0.71,0.00,25.06,28.62,31.47,14.26,49.58,1005.89,2030.98,3204.86,2944.82,3318.14,600.02,585.77,13.39,0000 0000 0000 0000 000000
2016-05-02 06:26:21,0.04,0.72,0.00,25.06,28.62,31.49,14.27,49.46,1006.10,2030.99,3203.99,2944.06,3317.63,600.00,585.73,13.44,0000 0000 0000 0000 000000
2016-05-02 06:31:23,0.02,0.72,0.00,25.05,28.62,31.48,14.20,49.35,1006.27,2030.99,3203.10,2943.90,3317.01,599.92,585.93,13.49,0000 0000 0000 0000 000000
2016-05-02 06:36:24,0.05,0.72,0.00,25.06,28.62,31.49,14.22,49.50,1006.36,2030.99,3202.32,2943.10,3316.31,599.86,585.80,13.54,0000 0000 0000 0000 000000
2016-05-02 06:41:26,0.01,0.72,0.00,25.09,28.63,31.51,14.24,49.34,1006.36,2030.99,3201.80,2942.95,3315.92,600.10,585.98,13.59,0000 0000 0000 0000 000000
2016-05-02 06:46:27,0.04,0.72,0.00,25.08,28.63,31.50,14.29,49.63,1006.36,2030.99,3201.00,2942.20,3315.10,600.13,586.03,13.64,0000 0000 0000 0000 000000
2016-05-02 06:51:28,0.02,0.72,0.00,25.07,28.63,31.51,14.31,49.68,1006.37,2030.98,3200.17,2941.98,3314.70,600.37,586.29,13.69,0000 0000 0000 0000 000000
2016-05-02 06:56:29,0.04,0.73,0.00,25.08,28.63,31.50,14.29,49.49,1006.37,2030.99,3199.53,2941.36,3314.02,600.07,586.00,13.74,0000 0000 0000 0000 000000
2016-05-02 07:01:31,0.01,0.73,0.00,25.07,28.63,31.49,14.32,49.44,1006.41,2030.99,3198.97,2941.00,3313.59,599.94,585.96,13.79,0000 0000 0000 0000 000000
2016-05-02 07:06:32,0.04,0.73,0.00,25.09,28.64,31.50,14.23,49.39,1006.61,2030.98,3198.16,2940.44,3312.99,600.02,586.09,13.85,0000 0000 0000 0000 000000
2016-05-02 07:11:33,0.03,0.73,0.00,25.11,28.65,31.49,14.26,49.32,1006.82,2030.99,3197.47,2940.00,3312.27,600.20,586.25,13.90,0000 0000 0000 0000 000000
2016-05-02 07:16:35,0.02,0.73,0.00,25.12,28.65,31.48,14.27,49.33,1006.85,2030.99,3196.86,2939.68,3311.89,599.88,585.93,13.95,0000 0000 0000 0000 000000
2016-05-02 07:21:36,0.04,0.74,0.00,25.14,28.65,31.50,14.24,49.27,1006.86,2030.97,3196.07,2939.02,3311.11,599.55,585.63,14.00,0000 0000 0000 0000 000000
2016-05-02 07:26:37,0.05,0.74,0.00,25.17,28.67,31.50,14.28,49.38,1006.91,2030.98,3195.35,2938.50,3310.45,600.17,586.21,14.05,0000 0000 0000 0000 000000
2016-05-02 07:31:38,0.01,0.74,0.00,25.18,28.68,31.52,14.27,49.27,1007.14,2030.97,3194.70,2938.00,3309.93,600.24,586.56,14.10,0000 0000 0000 0000 000000
2016-05-02 07:36:39,0.04,0.74,0.00,25.22,28.70,31.51,14.21,49.23,1007.31,2030.95,3194.02,2937.43,3309.12,599.59,585.83,14.15,0000 0000 0000 0000 000000
2016-05-02 07:41:41,0.02,0.74,0.00,25.25,28.71,31.51,14.24,49.23,1007.32,2030.87,3193.22,2936.99,3308.54,599.74,585.92,14.20,0000 0000 0000 0000 000000
2016-05-02 07:46:42,0.05,0.74,0.00,25.26,28.72,31.52,14.30,49.34,1007.34,2030.85,3192.40,2936.31,3307.97,600.11,586.22,14.25,0000 0000 0000 0000 000000
2016-05-02 07:51:43,0.02,0.75,0.00,25.26,28.74,31.53,14.26,49.31,1007.34,2030.73,3191.69,2935.92,3307.16,599.90,586.07,14.30,0000 0000 0000 0000 000000
2016-05-02 07:56:45,0.02,0.75,0.00,25.23,28.75,31.53,14.29,49.33,1007.35,2030.48,3190.88,2935.16,3306.59,599.98,586.21,14.35,0000 0000 0000 0000 000000
2016-05-02 08:01:46,0.02,0.75,0.00,25.22,28.75,31.53,14.35,49.59,1007.45,2030.43,3190.05,2934.91,3306.01,600.33,586.51,14.40,0000 0000 0000 0000 000000
2016-05-02 08:06:47,0.02,0.75,0.00,25.23,28.75,31.55,14.25,49.51,1007.76,2030.20,3189.18,2934.13,3305.27,600.20,586.47,14.45,0000 0000 0000 0000 000000
2016-05-02 08:11:48,0.04,0.75,0.00,25.24,28.75,31.53,14.32,49.38,1007.79,2030.07,3188.17,2933.58,3304.60,600.18,586.45,14.50,0000 0000 0000 0000 000000
2016-05-02 08:16:50,0.03,0.75,0.00,25.28,28.75,31.53,14.20,49.38,1007.80,2030.16,3187.42,2933.01,3304.02,599.91,586.42,14.55,0000 0000 0000 0000 000000
2016-05-02 08:21:51,0.04,0.75,0.00,25.34,28.75,31.54,14.32,49.45,1007.83,2030.19,3186.66,2932.60,3303.35,600.09,586.49,14.60,0000 0000 0000 0000 000000
2016-05-02 08:26:52,0.01,0.76,0.00,25.36,28.75,31.54,14.13,49.33,1007.83,2030.09,3185.84,2932.01,3302.79,599.63,586.01,14.65,0000 0000 0000 0000 000000
2016-05-02 08:31:53,0.05,0.76,0.00,25.36,28.76,31.54,14.28,49.49,1007.84,2030.09,3184.87,2931.37,3301.98,599.77,585.92,14.70,0000 0000 0000 0000 000000
2016-05-02 08:36:55,0.04,0.76,0.00,25.40,28.77,31.55,14.20,49.36,1007.92,2030.06,3183.89,2930.73,3301.11,599.97,586.17,14.75,0000 0000 0000 0000 000000
2016-05-02 08:41:56,0.04,0.76,0.00,25.43,28.77,31.55,14.28,49.56,1008.15,2030.06,3182.70,2929.98,3300.21,599.62,585.90,14.80,0000 0000 0000 0000 000000
2016-05-02 08:46:57,0.05,0.77,0.00,25.45,28.77,31.55,14.29,49.28,1008.14,2030.04,3181.60,2929.13,3299.29,600.04,586.12,14.85,0000 0000 0000 0000 000000
2016-05-02 08:51:59,0.05,0.77,0.00,25.44,28.77,31.55,14.17,49.34,1008.11,2030.02,3180.51,2928.41,3298.41,599.75,585.89,14.90,0000 0000 0000 0000 000000
2016-05-02 08:57:00,0.04,0.77,0.00,25.41,28.77,31.56,14.25,49.55,1008.17,2030.04,3179.39,2927.86,3297.62,600.03,586.42,14.95,0000 0000 0000 0000 000000
2016-05-02 09:02:01,0.05,0.77,0.00,25.40,28.77,31.56,14.31,49.45,1008.26,2030.03,3178.36,2927.04,3296.78,600.22,586.60,15.00,0000 0000 0000 0000 000000
2016-05-02 09:07:03,0.05,0.78,0.00,25.42,28.77,31.55,14.23,49.28,1008.31,2030.03,3177.25,2926.23,3295.93,599.88,586.21,15.05,0000 0000 0000 0000 000000
2016-05-02 09:12:04,0.05,0.78,0.00,25.40,28.77,31.56,14.33,49.47,1008.31,2030.05,3176.18,2925.70,3295.02,599.99,586.45,15.10,0000 0000 0000 0000 000000
2016-05-02 09:17:05,0.05,0.78,0.00,25.37,28.77,31.56,14.20,49.23,1008.31,2030.03,3175.06,2924.94,3294.11,599.94,586.41,15.15,0000 0000 0000 0000 000000
2016-05-02 09:22:06,0.05,0.79,0.00,25.37,28.76,31.56,14.27,49.45,1008.32,2030.03,3173.98,2924.10,3293.23,600.01,586.37,15.20,0000 0000 0000 0000 000000
2016-05-02 09:27:07,0.05,0.79,0.00,25.36,28.75,31.54,14.29,49.39,1008.33,2030.03,3172.93,2923.46,3292.34,599.86,586.47,15.25,0000 0000 0000 0000 000000
2016-05-02 09:32:08,0.04,0.79,0.00,25.34,28.75,31.53,14.32,49.27,1008.34,2030.01,3171.87,2922.81,3291.55,600.05,586.49,15.30,0000 0000 0000 0000 000000
2016-05-02 09:37:09,0.04,0.79,0.00,25.34,28.75,31.54,14.25,49.36,1008.36,2030.01,3170.83,2922.04,3290.78,599.81,586.37,15.35,0000 0000 0000 0000 000000
2016-05-02 09:42:11,0.05,0.79,0.00,25.32,28.74,31.53,14.25,49.29,1008.53,2030.02,3169.91,2921.42,3290.01,600.15,586.81,15.40,0000 0000 0000 0000 000000
2016-05-02 09:47:12,0.03,0.80,0.00,25.30,28.72,31.52,14.24,49.58,1008.71,2030.03,3168.97,2920.97,3289.19,599.81,586.66,15.45,0000 0000 0000 0000 000000
2016-05-02 09:52:13,0.05,0.80,0.00,25.30,28.72,31.51,14.20,49.47,1008.80,2030.03,3168.01,2920.17,3288.53,599.87,586.75,15.50,0000 0000 0000 0000 000000
2016-05-02 09:57:15,0.04,0.80,0.00,25.30,28.72,31.52,14.29,49.40,1008.80,2030.08,3167.04,2919.77,3287.91,600.04,586.86,15.55,0000 0000 0000 0000 000000
2016-05-02 10:02:16,0.04,0.80,0.00,25.28,28.71,31.52,14.25,49.47,1008.80,2030.11,3166.07,2919.04,3287.06,600.03,586.97,15.60,0000 0000 0000 0000 000000
2016-05-02 10:07:17,0.06,0.81,0.00,25.28,28.70,31.52,14.27,49.49,1008.80,2030.12,3165.10,2918.29,3286.19,599.83,586.74,15.65,0000 0000 0000 0000 000000
2016-05-02 10:12:19,0.04,0.81,0.00,25.27,28.70,31.50,14.29,49.44,1008.82,2030.22,3164.26,2917.87,3285.61,599.87,586.83,15.70,0000 0000 0000 0000 000000
2016-05-02 10:17:20,0.04,0.81,0.00,25.27,28.70,31.50,14.18,49.20,1008.89,2030.14,3163.19,2917.07,3284.89,599.91,586.92,15.75,0000 0000 0000 0000 000000
2016-05-02 10:22:21,0.05,0.81,0.00,25.29,28.70,31.51,14.40,49.44,1009.09,2030.20,3162.34,2916.65,3284.08,600.27,587.31,15.80,0000 0000 0000 0000 000000
2016-05-02 10:27:22,0.03,0.82,0.00,25.28,28.69,31.49,14.24,49.17,1009.29,2030.15,3161.62,2916.02,3283.38,599.96,587.14,15.85,0000 0000 0000 0000 000000
2016-05-02 10:32:24,0.04,0.82,0.00,25.29,28.68,31.49,14.35,49.27,1009.30,2030.20,3160.83,2915.35,3282.77,600.15,587.35,15.90,0000 0000 0000 0000 000000
2016-05-02 10:37:25,0.03,0.82,0.00,25.27,28.68,31.50,14.24,49.31,1009.30,2030.08,3159.83,2914.82,3282.00,599.49,586.75,15.95,0000 0000 0000 0000 000000
2016-05-02 10:42:26,0.05,0.82,0.00,25.26,28.67,31.50,14.32,49.35,1009.29,2030.10,3158.87,2914.07,3281.22,600.16,587.22,16.00,0000 0000 0000 0000 000000
2016-05-02 10:47:27,0.06,0.83,0.00,25.26,28.67,31.50,14.32,49.47,1009.31,2030.32,3157.96,2913.69,3280.63,600.30,587.44,16.05,0000 0000 0000 0000 000000
2016-05-02 10:52:28,0.04,0.83,0.00,25.27,28.67,31.53,14.29,49.44,1009.38,2030.42,3157.01,2913.03,3279.93,600.00,587.27,16.10,0000 0000 0000 0000 000000
2016-05-02 10:57:30,0.04,0.83,0.00,25.30,28.67,31.54,14.23,49.27,1009.37,2030.37,3156.04,2912.27,3279.08,599.72,586.94,16.15,0000 0000 0000 0000 000000
2016-05-02 11:02:31,0.04,0.83,0.00,25.35,28.67,31.54,14.20,49.38,1009.33,2030.37,3155.10,2911.77,3278.22,599.61,586.76,16.20,0000 0000 0000 0000 000000
2016-05-02 11:07:32,0.07,0.84,0.00,25.41,28.67,31.53,14.21,49.50,1009.33,2030.60,3154.17,2911.05,3277.66,600.01,586.77,16.25,0000 0000 0000 0000 000000
2016-05-02 11:12:34,0.04,0.84,0.00,25.42,28.67,31.52,14.23,49.42,1009.39,2030.64,3153.27,2910.57,3276.97,599.79,586.79,16.31,0000 0000 0000 0000 000000
2016-05-02 11:17:35,0.03,0.84,0.00,25.39,28.67,31.51,14.33,49.39,1009.71,2030.65,3152.41,2909.98,3276.14,600.01,587.25,16.36,0000 0000 0000 0000 000000
2016-05-02 11:22:36,0.06,0.84,0.00,25.36,28.67,31.52,14.33,49.58,1009.78,2030.71,3151.77,2909.26,3275.56,599.63,586.94,16.41,0000 0000 0000 0000 000000
2016-05-02 11:27:37,0.01,0.84,0.00,25.34,28.67,31.52,14.26,49.18,1009.79,2030.54,3150.85,2908.90,3274.94,600.12,587.50,16.46,0000 0000 0000 0000 000000
2016-05-02 11:32:39,0.07,0.85,0.00,25.30,28.67,31.53,14.33,49.39,1010.09,2030.70,3149.93,2908.12,3274.10,600.19,587.73,16.51,0000 0000 0000 0000 000000
2016-05-02 11:37:40,0.04,0.85,0.00,25.27,28.67,31.52,14.33,49.54,1010.22,2030.76,3149.06,2907.69,3273.41,599.97,587.71,16.56,0000 0000 0000 0000 000000
2016-05-02 11:42:42,-0.00,0.85,0.00,25.25,28.67,31.51,14.27,49.29,1009.92,2030.45,3148.50,2907.03,3272.86,599.83,587.57,16.61,0000 0000 0000 0000 000000
2016-05-02 11:47:43,0.06,0.85,0.00,25.23,28.66,31.48,14.28,49.58,1009.80,2030.52,3147.38,2906.47,3272.05,599.82,587.44,16.66,0000 0000 0000 0000 000000
2016-05-02 11:52:44,0.03,0.86,0.00,25.27,28.65,31.51,14.24,49.58,1009.79,2030.57,3146.39,2905.91,3271.38,599.73,587.29,16.71,0000 0000 0000 0000 000000
2016-05-02 11:57:46,0.04,0.86,0.00,25.30,28.65,31.53,14.23,49.55,1009.78,2030.47,3145.54,2905.11,3270.72,599.86,587.33,16.76,0000 0000 0000 0000 000000
2016-05-02 12:02:47,0.04,0.86,0.00,25.30,28.65,31.49,14.27,49.47,1009.98,2030.59,3144.74,2904.78,3270.02,600.23,587.84,16.81,0000 0000 0000 0000 000000
2016-05-02 12:07:48,0.04,0.86,0.00,25.30,28.65,31.51,14.28,49.29,1010.27,2030.66,3143.90,2904.04,3269.31,600.35,588.13,16.86,0000 0000 0000 0000 000000
2016-05-02 12:12:49,0.02,0.86,0.00,25.30,28.65,31.49,14.33,49.46,1010.27,2030.42,3143.15,2903.60,3268.69,600.22,588.12,16.91,0000 0000 0000 0000 000000
2016-05-02 12:17:50,0.02,0.87,0.00,25.27,28.65,31.49,14.29,49.23,1010.28,2030.44,3142.23,2903.01,3268.01,600.02,587.77,16.96,0000 0000 0000 0000 000000
2016-05-02 12:22:51,0.08,0.87,0.00,25.25,28.64,31.49,14.32,49.37,1010.31,2030.54,3141.51,2902.43,3267.26,600.34,588.13,17.01,0000 0000 0000 0000 000000
2016-05-02 12:27:52,0.01,0.87,0.00,25.23,28.63,31.48,14.29,49.50,1010.19,2030.68,3140.94,2902.01,3266.88,600.40,588.17,17.06,0000 0000 0000 0000 000000
2016-05-02 12:32:54,0.03,0.87,0.00,25.20,28.62,31.50,14.28,49.34,1010.27,2030.41,3140.10,2901.50,3266.08,600.25,588.04,17.11,0000 0000 0000 0000 000000
2016-05-02 12:37:55,0.01,0.87,0.00,25.20,28.62,31.49,14.29,49.48,1010.55,2030.19,3139.64,2901.00,3265.38,600.44,588.53,17.16,0000 0000 0000 0000 000000
2016-05-02 12:42:56,0.06,0.87,0.00,25.22,28.62,31.49,14.25,49.51,1010.55,2030.29,3138.67,2900.44,3264.97,599.90,587.90,17.21,0000 0000 0000 0000 000000
2016-05-02 12:47:57,0.01,0.88,0.00,25.21,28.60,31.48,14.39,49.58,1010.64,2030.24,3137.94,2900.01,3264.17,600.07,588.22,17.26,0000 0000 0000 0000 000000
2016-05-02 12:52:59,0.03,0.88,0.00,25.18,28.60,31.45,14.35,49.52,1010.68,2030.10,3137.21,2899.44,3263.74,600.15,588.44,17.31,0000 0000 0000 0000 000000
2016-05-02 12:58:00,0.02,0.88,0.00,25.16,28.59,31.45,14.27,49.35,1010.68,2030.09,3136.74,2899.00,3263.05,599.68,587.88,17.36,0000 0000 0000 0000 000000